Weather Roundup
Issued by NWS Chicago, IL

Home | Current Version | Previous Version | Graphics & Text | Print | Product List | Glossary On
Versions: 1 2 3 4 5 6 7 8 9 10 11 12 13 14 15 16 17 18 19 20 21 22 23 24 25 26 27 28 29 30 31 32 33 34 35 36 37 38 39 40 41 42 43 44 45 46 47 48 49 50
557
NZUS59 KLOT 140208
HRRLOT

CHICAGO AREA WEATHER ROUNDUP
NATIONAL WEATHER SERVICE CHICAGO/ROMEOVILLE IL
800 PM CST SAT FEB 13 2016

NOTE: "FAIR" INDICATES FEW OR NO CLOUDS BELOW 12,000 FEET WITH NO
SIGNIFICANT WEATHER AND/OR OBSTRUCTIONS TO VISIBILITY.

* THESE STATIONS ARE NOT UNDER NWS QUALITY CONTROL. THEY ALSO MAY NOT
  REPORT WEATHER SUCH AS PRECIPITATION OR FOG.

ILZ005-006-012>014-019>023-140300-
NORTHEAST ILLINOIS

CITY           SKY/WX    TMP DP  RH WIND       PRES   REMARKS
OHARE          PTCLDY    12  -4  48 NE5       30.48F WCI   4
MIDWAY         CLOUDY    15  -6  39 CALM      30.49F
AURORA         CLOUDY    12   4  70 CALM      30.49F
LANSING*       CLOUDY    12  -1  57 SE5       30.50F WCI   4
JOLIET*        PTCLDY    12   2  65 CALM      30.50F
WAUKEGAN       CLOUDY     4  -3  73 CALM      30.48F
DUPAGE AIRPORT CLOUDY    10  -3  55 CALM      30.47F
WHEELING       CLEAR     11  -4  51 NE3       30.50F
KANKAKEE*      PTCLDY    13   2  62 CALM      30.51F
MORRIS*        PTCLDY    14   1  56 CALM      30.49S
LEWIS AIRPORT* CLOUDY    13  -1  52 W3        30.49F
$$

WIZ051-052-058>065-066-070>072-140300-
SOUTHEAST WISCONSIN

CITY           SKY/WX    TMP DP  RH WIND       PRES   REMARKS
MILWAUKEE      PTCLDY     8  -7  50 NW3       30.49F
KENOSHA*       CLEAR      8  -5  55 N5        30.48F WCI   0
RACINE*        CLEAR      7  -7  52 N3        30.50F
BURLINGTON     CLOUDY     3  -6  66 CALM      30.47F
WAUKESHA       CLEAR      1  -8  66 CALM      30.48F
$$

INZ001>003-010>013-019-020-140300-
NORTHWEST INDIANA

CITY           SKY/WX    TMP DP  RH WIND       PRES   REMARKS
GARY*          PTCLDY    14   0  52 CALM      30.50F
MICHIGAN CITY* NOT AVBL
RENSSELAER*    NOT AVBL
VALPARAISO     CLOUDY     8  -1  66 SE3       30.49F
$$

LMZ740>746-140300-
SOUTHERN LAKE MICHIGAN

STATION/POSITION TIME  SKY/WX   TEMP WIND        PRES    VSBY
                                AIR  DIR/SP/G
                 (UTC)          (F)  (DEG/KT/KT) (MB)    (MI)
HARRISON CRIB    0100            17  300/  5/  6   N/A
BURNHAM HARBOR   0200            16  280/  3/  6   N/A
CALUMET HARBOR   0100            15  280/  2/  3 1032.2S
BURNS HARBOR     0100            14  170/  2/  3 1033.5S
MICHIGAN CITY    0100            15  280/  6/  7   N/A
$$

ABBREVIATIONS USED IN REMARKS
   TC - TEMPERATURE IN CELSIUS
  WCI - WIND CHILL INDEX
   HX - HEAT INDEX
  VSB - VISIBILITY
$$




USA.gov is the U.S. government's official web portal to all federal, state and local government web resources and services.